Simultaneous Nadir Overpasses (SNOs) Predictions

Prediction of SNOs between AQUA and METOP-B Satellite Orbit:

Table of predicted SNOs for the next 14.0 days since TLE Epoch: 6/25/2016
Index Date (AQUA) Time (AQUA) Lat,Lon (AQUA) SZA (AQUA ) Date (METOP-B) Time (METOP-B) Lat,Lon (METOP-B) SZA (METOP-B ) Distance(km) Time Diff (sec)
1 06/26/2016 16:51:00 -73.76, 101.63 129.54 06/26/2016 16:50:24 -73.76, 101.58 129.53 1.47 36
2 06/26/2016 17:40:29 73.82, -90.88 50.54 06/26/2016 17:41:03 73.82, -90.95 50.53 2.32 34
3 06/29/2016 12:25:13 -73.77, 168.05 129.38 06/29/2016 12:24:49 -73.78, 168.05 129.36 1.82 24
4 06/29/2016 13:14:42 73.84, -24.46 50.69 06/29/2016 13:15:28 73.84, -24.49 50.69 0.91 46
5 07/02/2016 07:09:52 73.34, 67.77 50.35 07/02/2016 07:08:43 73.28, 65.96 50.38 58.26 69
6 07/02/2016 07:59:26 -73.78,-125.54 129.17 07/02/2016 07:59:14 -73.81,-125.49 129.14 3.11 12
7 07/02/2016 08:48:55 73.86, 41.93 50.92 07/02/2016 08:49:53 73.86, 41.97 50.91 1.04 58
8 07/05/2016 02:44:11 73.74, 133.37 51.03 07/05/2016 02:42:58 73.75, 133.44 51.05 2.58 73
9 07/05/2016 03:33:38 -73.81, -59.15 128.89 07/05/2016 03:33:39 -73.78, -59.15 128.92 3.10 1
10 07/05/2016 04:23:07 73.89, 108.31 51.20 07/05/2016 04:24:17 73.88, 108.42 51.18 3.70 70
11 07/07/2016 22:18:23 73.73,-160.16 51.32 07/07/2016 22:17:24 73.72,-160.23 51.32 2.37 59
12 07/07/2016 23:07:50 -73.79, 7.33 128.61 07/07/2016 23:08:04 -73.81, 7.31 128.60 1.34 14




NCC Satellite Simultaneous Nadir Overpasses (SNOs) Prediction Service
